When you browse on this site, cookies collect data to enhance your experience and personalize the content and advertising you see.
Visit our Privacy Policy to learn more. By continuing to use the site, you agree to this use of cookies and data.
  • Em Portugal
  • Lista de países
  • Para 7 dias
  • Temperatura da água
  • Mapas de satélite
  • Mapa do tempo
  • Widgets de tempo
  • user-avatar
    Iniciar Sessão

    Previsão horária em Natitingou

    Hoje, 25 Maio, Sábado

    Tempo Temperatura Precipitação Vento Pressão Humidade
    00:00 +28°C° 0 mm 2 m/s 717 mmHg 72%
    01:00 +28°C° 0.1 mm 2 m/s 716 mmHg 73%
    02:00 +27°C° 0.1 mm 2 m/s 716 mmHg 74%
    03:00 +27°C° 0.1 mm 2 m/s 716 mmHg 75%
    04:00 +27°C° 0 mm 2 m/s 716 mmHg 77%
    05:00 +27°C° 0 mm 1 m/s 717 mmHg 78%
    06:00 +27°C° 0 mm 1 m/s 717 mmHg 81%
    07:00 +28°C° 0 mm 2 m/s 717 mmHg 74%
    08:00 +30°C° 0 mm 2 m/s 718 mmHg 68%
    09:00 +31°C° 0 mm 3 m/s 718 mmHg 61%
    10:00 +34°C° 0 mm 2 m/s 718 mmHg 56%
    11:00 +35°C° 0 mm 2 m/s 718 mmHg 50%
    12:00 +37°C° 0 mm 2 m/s 718 mmHg 44%
    13:00 +37°C° 0 mm 2 m/s 717 mmHg 44%
    14:00 +36°C° 0 mm 1 m/s 716 mmHg 43%
    15:00 +36°C° 0 mm 1 m/s 716 mmHg 42%
    16:00 +33°C° 0 mm 0 m/s 715 mmHg 45%
    17:00 +32°C° 0 mm 0 m/s 715 mmHg 47%
    18:00 +31°C° 0 mm 0 m/s 715 mmHg 50%
    19:00 +31°C° 0 mm 0 m/s 716 mmHg 50%
    20:00 +32°C° 0 mm 1 m/s 716 mmHg 51%
    21:00 +32°C° 0 mm 1 m/s 716 mmHg 52%
    22:00 +30°C° 3.3 mm 2 m/s 716 mmHg 62%
    23:00 +29°C° 3.3 mm 3 m/s 716 mmHg 72%

    Amanhã, 26 Maio, Domingo

    Tempo Temperatura Precipitação Vento Pressão Humidade
    00:00 +27°C° 3.3 mm 4 m/s 716 mmHg 83%
    01:00 +27°C° 0.8 mm 4 m/s 716 mmHg 84%
    02:00 +27°C° 0.8 mm 3 m/s 716 mmHg 85%
    03:00 +26°C° 0.8 mm 3 m/s 716 mmHg 87%
    04:00 +26°C° 0 mm 3 m/s 716 mmHg 87%
    05:00 +26°C° 0 mm 3 m/s 716 mmHg 87%
    06:00 +26°C° 0 mm 4 m/s 717 mmHg 88%
    07:00 +26°C° 0 mm 4 m/s 717 mmHg 85%
    08:00 +27°C° 0 mm 3 m/s 717 mmHg 82%
    09:00 +27°C° 0 mm 3 m/s 718 mmHg 80%
    10:00 +29°C° 0 mm 3 m/s 717 mmHg 72%
    11:00 +31°C° 0 mm 3 m/s 717 mmHg 65%
    12:00 +34°C° 0 mm 3 m/s 717 mmHg 58%
    13:00 +34°C° 0 mm 3 m/s 717 mmHg 55%
    14:00 +35°C° 0 mm 3 m/s 716 mmHg 52%
    15:00 +35°C° 0 mm 3 m/s 715 mmHg 50%
    16:00 +34°C° 0 mm 2 m/s 715 mmHg 53%
    17:00 +32°C° 0 mm 2 m/s 715 mmHg 57%
    18:00 +31°C° 0 mm 1 m/s 715 mmHg 60%
    19:00 +31°C° 0 mm 2 m/s 715 mmHg 63%
    20:00 +30°C° 0 mm 2 m/s 716 mmHg 66%
    21:00 +29°C° 0 mm 2 m/s 716 mmHg 70%
    22:00 +29°C° 0 mm 2 m/s 716 mmHg 71%
    23:00 +28°C° 0 mm 2 m/s 716 mmHg 73%

    Depois de amanhã, 27 Maio, Segunda-feira

    Tempo Temperatura Precipitação Vento Pressão Humidade
    00:00 +28°C° 0 mm 3 m/s 715 mmHg 75%
    01:00 +28°C° 0 mm 3 m/s 715 mmHg 75%
    02:00 +27°C° 0 mm 3 m/s 715 mmHg 75%
    03:00 +27°C° 0 mm 2 m/s 715 mmHg 75%
    04:00 +27°C° 0 mm 3 m/s 715 mmHg 75%
    05:00 +27°C° 0 mm 3 m/s 716 mmHg 76%
    06:00 +27°C° 0 mm 3 m/s 716 mmHg 76%
    07:00 +28°C° 0 mm 3 m/s 716 mmHg 73%
    08:00 +29°C° 0 mm 4 m/s 717 mmHg 70%
    09:00 +29°C° 0 mm 4 m/s 717 mmHg 66%
    10:00 +32°C° 0 mm 4 m/s 717 mmHg 62%
    11:00 +33°C° 0 mm 4 m/s 717 mmHg 58%
    12:00 +35°C° 0 mm 4 m/s 717 mmHg 54%
    13:00 +35°C° 0 mm 4 m/s 716 mmHg 52%
    14:00 +36°C° 0 mm 4 m/s 715 mmHg 50%
    15:00 +36°C° 0 mm 4 m/s 714 mmHg 48%
    16:00 +35°C° 0 mm 3 m/s 714 mmHg 52%
    17:00 +34°C° 0 mm 3 m/s 714 mmHg 56%
    18:00 +32°C° 0 mm 2 m/s 714 mmHg 60%
    19:00 +31°C° 0 mm 2 m/s 715 mmHg 62%
    20:00 +31°C° 0 mm 3 m/s 716 mmHg 63%
    21:00 +30°C° 0 mm 3 m/s 717 mmHg 65%
    22:00 +30°C° 0 mm 3 m/s 716 mmHg 66%
    23:00 +30°C° 0 mm 3 m/s 716 mmHg 67%

    28 Maio, Terça-feira

    Tempo Temperatura Precipitação Vento Pressão Humidade
    00:00 +29°C° 0 mm 3 m/s 716 mmHg 67%
    01:00 +28°C° 0.3 mm 4 m/s 716 mmHg 73%
    02:00 +27°C° 0.3 mm 4 m/s 715 mmHg 78%
    03:00 +26°C° 0.3 mm 4 m/s 715 mmHg 83%
    04:00 +26°C° 0 mm 4 m/s 715 mmHg 84%
    05:00 +26°C° 0 mm 4 m/s 716 mmHg 85%
    06:00 +26°C° 0 mm 4 m/s 716 mmHg 86%
    07:00 +27°C° 0 mm 4 m/s 717 mmHg 80%
    08:00 +28°C° 0 mm 5 m/s 717 mmHg 74%
    09:00 +29°C° 0 mm 5 m/s 718 mmHg 68%
    10:00 +30°C° 0 mm 5 m/s 718 mmHg 64%
    11:00 +33°C° 0 mm 5 m/s 717 mmHg 59%
    12:00 +34°C° 0 mm 5 m/s 717 mmHg 55%
    13:00 +34°C° 0 mm 5 m/s 716 mmHg 54%
    14:00 +35°C° 0 mm 4 m/s 716 mmHg 53%
    15:00 +35°C° 0 mm 4 m/s 715 mmHg 51%
    16:00 +34°C° 0 mm 4 m/s 715 mmHg 55%
    17:00 +33°C° 0 mm 3 m/s 715 mmHg 59%
    18:00 +31°C° 0 mm 2 m/s 715 mmHg 63%
    19:00 +30°C° 0 mm 2 m/s 716 mmHg 65%
    20:00 +29°C° 0 mm 2 m/s 716 mmHg 67%
    21:00 +29°C° 0 mm 2 m/s 717 mmHg 69%
    22:00 +29°C° 0 mm 2 m/s 717 mmHg 70%
    23:00 +28°C° 0 mm 2 m/s 716 mmHg 70%

    29 Maio, Quarta-feira

    Tempo Temperatura Precipitação Vento Pressão Humidade
    00:00 +28°C° 0 mm 2 m/s 716 mmHg 71%
    01:00 +28°C° 0 mm 2 m/s 716 mmHg 71%
    02:00 +28°C° 0 mm 2 m/s 715 mmHg 72%
    03:00 +27°C° 0 mm 2 m/s 715 mmHg 72%
    04:00 +27°C° 0 mm 2 m/s 715 mmHg 73%
    05:00 +27°C° 0 mm 2 m/s 716 mmHg 74%
    06:00 +27°C° 0 mm 2 m/s 716 mmHg 74%
    07:00 +28°C° 0 mm 3 m/s 717 mmHg 70%
    08:00 +29°C° 0 mm 3 m/s 717 mmHg 66%
    09:00 +32°C° 0 mm 4 m/s 717 mmHg 61%
    10:00 +33°C° 0 mm 4 m/s 717 mmHg 58%
    11:00 +35°C° 0 mm 4 m/s 717 mmHg 54%
    12:00 +36°C° 0 mm 4 m/s 716 mmHg 50%
    13:00 +37°C° 0 mm 4 m/s 715 mmHg 48%
    14:00 +37°C° 0 mm 3 m/s 715 mmHg 46%
    15:00 +38°C° 0 mm 3 m/s 714 mmHg 45%
    16:00 +36°C° 0 mm 2 m/s 714 mmHg 49%
    17:00 +35°C° 0 mm 2 m/s 714 mmHg 52%
    18:00 +34°C° 0 mm 2 m/s 714 mmHg 56%
    19:00 +32°C° 0.1 mm 2 m/s 715 mmHg 58%
    20:00 +31°C° 0.1 mm 2 m/s 715 mmHg 60%
    21:00 +31°C° 0.1 mm 2 m/s 715 mmHg 61%
    22:00 +30°C° 1.3 mm 2 m/s 716 mmHg 68%
    23:00 +29°C° 1.3 mm 2 m/s 716 mmHg 74%

    30 Maio, Quinta-feira

    Tempo Temperatura Precipitação Vento Pressão Humidade
    00:00 +28°C° 1.3 mm 1 m/s 716 mmHg 80%
    01:00 +28°C° 0.8 mm 2 m/s 716 mmHg 81%
    02:00 +28°C° 0.8 mm 2 m/s 716 mmHg 83%
    03:00 +27°C° 0.8 mm 2 m/s 715 mmHg 84%
    04:00 +27°C° 0 mm 2 m/s 716 mmHg 85%
    05:00 +27°C° 0 mm 2 m/s 716 mmHg 86%
    06:00 +26°C° 0 mm 2 m/s 716 mmHg 87%
    07:00 +27°C° 0 mm 3 m/s 717 mmHg 82%
    08:00 +29°C° 0 mm 3 m/s 717 mmHg 76%
    09:00 +30°C° 0 mm 4 m/s 718 mmHg 71%
    10:00 +32°C° 0 mm 4 m/s 717 mmHg 66%
    11:00 +34°C° 0 mm 4 m/s 717 mmHg 61%
    12:00 +35°C° 0 mm 4 m/s 716 mmHg 55%
    13:00 +36°C° 0 mm 3 m/s 716 mmHg 53%
    14:00 +36°C° 0 mm 3 m/s 715 mmHg 51%
    15:00 +36°C° 0 mm 2 m/s 714 mmHg 49%
    16:00 +35°C° 0 mm 2 m/s 714 mmHg 53%
    17:00 +34°C° 0 mm 2 m/s 715 mmHg 56%
    18:00 +32°C° 0 mm 1 m/s 715 mmHg 60%
    19:00 +32°C° 0 mm 1 m/s 715 mmHg 62%
    20:00 +31°C° 0 mm 1 m/s 716 mmHg 64%
    21:00 +30°C° 0 mm 1 m/s 716 mmHg 66%
    22:00 +29°C° 2.1 mm 3 m/s 716 mmHg 69%
    23:00 +29°C° 2.1 mm 4 m/s 716 mmHg 72%
    Mostrar mais